CW9454 Weather Reports


Display with metric or nautical units.
time (UTC)temp
F
wind
direction
speed
MPH
gust
MPH
rain 1hr
in
rain 24hr
in
rain mn
in
humidity
%
barometer
mb
20260508162025 69 248 1.0 9.0 0.00 0.00 0.00 41 1014.0
20260508161038 68 331 4.0 10.0 0.00 0.00 0.00 40 1014.2
20260508160023 68 257 4.0 10.0 0.00 0.00 0.00 38 1014.3
20260508155016 68 343 4.0 14.0 0.00 0.00 0.00 40 1014.4
20260508154029 67 246 5.0 13.0 0.00 0.00 0.00 40 1014.7
20260508153023 68 275 4.0 11.0 0.00 0.00 0.00 42 1014.7
20260508152017 67 242 5.0 11.0 0.00 0.00 0.00 39 1014.9
20260508151030 67 229 2.0 11.0 0.00 0.00 0.00 40 1014.9
20260508150016 66 261 2.0 10.0 0.00 0.00 0.00 41 1014.9
20260508145031 65 279 2.0 10.0 0.00 0.00 0.00 39 1015.0
20260508144015 65 273 2.0 9.0 0.00 0.00 0.00 38 1015.1
20260508143038 64 241 1.0 9.0 0.00 0.00 0.00 43 1015.1
20260508142022 62 261 3.0 8.0 0.00 0.00 0.00 43 1015.2
20260508141016 60 261 2.0 7.0 0.00 0.00 0.00 46 1015.3
20260508140026 59 242 0.0 5.0 0.00 0.00 0.00 49 1015.2
20260508135020 58 251 1.0 5.0 0.00 0.00 0.00 48 1015.4
20260508134014 57 258 1.0 6.0 0.00 0.00 0.00 50 1015.5
20260508133028 56 252 1.0 4.0 0.00 0.00 0.00 53 1015.6
20260508132037 56 246 3.0 7.0 0.00 0.00 0.00 54 1015.8
20260508131030 55 253 1.0 5.0 0.00 0.00 0.00 58 1015.9
20260508130036 54 254 0.0 5.0 0.00 0.00 0.00 60 1015.9
20260508125029 53 281 0.0 5.0 0.00 0.00 0.00 64 1015.9
20260508124021 52 285 1.0 3.0 0.00 0.00 0.00 66 1015.8
20260508123016 51 285 0.0 3.0 0.00 0.00 0.00 70 1015.7
20260508122030 50 285 0.0 3.0 0.00 0.00 0.00 72 1015.7
20260508121016 49 286 1.0 4.0 0.00 0.00 0.00 75 1015.6
20260508120032 47 324 0.0 3.0 0.00 0.00 0.00 79 1015.7
20260508115017 46 337 0.0 0.0 0.00 0.00 0.00 80 1015.5
20260508114041 46 337 0.0 0.0 0.00 0.00 0.00 81 1015.4
20260508113034 45 337 0.0 0.0 0.00 0.00 0.00 82 1015.3
20260508112019 45 337 0.0 0.0 0.00 0.00 0.00 81 1015.2
20260508111013 45 337 0.0 0.0 0.00 0.00 0.00 80 1015.0
20260508110020 45 337 0.0 0.0 0.00 0.00 0.00 80 1014.9
20260508105014 46 337 0.0 0.0 0.00 0.00 0.00 79 1014.9
20260508104029 46 337 0.0 0.0 0.00 0.00 0.00 79 1014.8
20260508103043 46 337 0.0 0.0 0.00 0.00 0.00 79 1014.8
20260508102015 46 337 0.0 0.0 0.00 0.00 0.00 78 1014.7
20260508101029 47 337 0.0 0.0 0.00 0.00 0.00 78 1014.5
20260508100015 47 337 0.0 0.0 0.00 0.00 0.00 77 1014.3
20260508095029 48 337 0.0 0.0 0.00 0.00 0.00 76 1014.2
20260508094023 48 337 0.0 0.0 0.00 0.00 0.00 75 1014.2
20260508093033 49 337 0.0 0.0 0.00 0.00 0.00 74 1014.1
20260508092018 49 337 0.0 0.0 0.00 0.00 0.00 73 1014.1
20260508091042 50 337 0.0 0.0 0.00 0.00 0.00 72 1014.1
20260508090019 50 337 0.0 0.0 0.00 0.00 0.00 71 1014.1
20260508085013 51 337 0.0 0.0 0.00 0.00 0.00 71 1013.9
20260508084055 51 337 0.0 0.0 0.00 0.00 0.00 70 1013.7
20260508083018 51 337 0.0 1.0 0.00 0.00 0.00 69 1013.7
20260508082013 51 337 1.0 4.0 0.00 0.00 0.00 69 1013.5
20260508081026 51 330 0.0 1.0 0.00 0.00 0.00 71 1013.3
20260508080027 51 330 0.0 3.0 0.00 0.00 0.00 72 1013.2
20260508075041 50 329 0.0 4.0 0.00 0.00 0.00 76 1013.1
20260508074015 50 286 0.0 4.0 0.00 0.00 0.00 79 1013.1
20260508073027 50 244 0.0 3.0 0.00 0.00 0.00 82 1012.7
20260508072041 50 232 0.0 3.0 0.00 0.00 0.00 84 1012.6
20260508071013 50 225 0.0 0.0 0.00 0.00 0.00 84 1012.6
20260508070023 50 225 0.0 0.0 0.00 0.00 0.00 84 1012.4
20260508065018 50 225 0.0 7.0 0.00 0.01 0.00 84 1012.4
20260508064032 50 252 0.0 4.0 0.00 0.01 0.00 85 1012.2
20260508063026 51 247 0.0 5.0 0.00 0.01 0.00 85 1011.9
20260508062018 51 244 0.0 4.0 0.00 0.01 0.00 84 1012.0
20260508061052 51 245 1.0 4.0 0.00 0.01 0.00 84 1011.9
20260508060018 51 257 2.0 6.0 0.00 0.01 0.00 84 1011.9
20260508055028 51 256 2.0 5.0 0.00 0.04 0.00 84 1011.9
20260508054021 51 252 1.0 4.0 0.00 0.04 0.00 84 1011.9
20260508053036 52 250 1.0 5.0 0.00 0.04 0.00 84 1011.8
20260508052029 52 248 2.0 7.0 0.00 0.04 0.00 83 1011.8
20260508051022 52 249 2.0 7.0 0.00 0.04 0.00 83 1011.8
20260508050029 52 257 1.0 5.0 0.00 0.04 0.00 82 1011.5
20260508045023 52 253 2.0 4.0 0.00 0.04 0.00 82 1011.5
20260508044037 52 252 1.0 5.0 0.00 0.04 0.00 82 1011.4
20260508043022 52 226 1.0 5.0 0.00 0.04 0.00 82 1011.3
20260508042016 52 223 1.0 4.0 0.00 0.04 0.00 81 1011.2
20260508041048 52 221 1.0 4.0 0.00 0.04 0.00 81 1011.2
20260508040043 52 212 2.0 4.0 0.00 0.04 0.00 80 1011.1
20260508035036 52 204 0.0 1.0 0.00 0.04 0.04 79 1011.1
20260508034030 52 204 0.0 2.0 0.00 0.04 0.04 78 1011.1
20260508033044 53 199 0.0 0.0 0.00 0.04 0.04 77 1011.0
20260508032036 53 199 0.0 1.0 0.00 0.04 0.04 77 1011.1
20260508031020 53 199 0.0 0.0 0.00 0.04 0.04 76 1011.2
20260508030036 53 199 0.0 0.0 0.00 0.04 0.04 76 1011.1
20260508025021 53 199 0.0 2.0 0.00 0.04 0.04 75 1011.0
20260508024016 54 197 0.0 0.0 0.00 0.04 0.04 74 1011.1
20260508023030 54 197 0.0 1.0 0.00 0.04 0.04 74 1011.1
20260508022023 54 197 0.0 0.0 0.00 0.04 0.04 73 1011.2
20260508021018 54 197 0.0 1.0 0.00 0.04 0.04 72 1011.1
20260508020042 55 197 0.0 1.0 0.00 0.04 0.04 71 1011.1
20260508015016 55 197 0.0 2.0 0.00 0.04 0.04 71 1010.9
20260508014029 55 187 0.0 0.0 0.00 0.04 0.04 70 1010.9
20260508013023 55 187 0.0 2.0 0.00 0.04 0.04 69 1010.8
20260508012037 55 185 0.0 1.0 0.00 0.04 0.04 68 1010.7
20260508011032 56 185 0.0 1.0 0.00 0.04 0.04 67 1010.6
20260508010040 56 184 0.0 0.0 0.00 0.04 0.04 67 1010.3
20260508005034 56 184 0.0 0.0 0.00 0.04 0.04 65 1010.3
20260508004017 57 184 0.0 1.0 0.00 0.04 0.04 64 1010.1
20260508003032 57 184 0.0 0.0 0.00 0.04 0.04 63 1010.0
20260508002046 58 184 0.0 2.0 0.00 0.04 0.04 62 1010.0
20260508001039 58 184 0.0 1.0 0.00 0.04 0.04 61 1009.9
20260508000036 59 184 0.0 1.0 0.00 0.04 0.04 60 1009.7
20260507235030 59 184 0.0 1.0 0.00 0.04 0.04 59 1009.4
20260507234015 60 184 0.0 4.0 0.00 0.04 0.04 57 1009.4
20260507233028 60 159 0.0 2.0 0.00 0.04 0.04 57 1009.2
20260507232023 61 175 0.0 3.0 0.00 0.04 0.04 57 1009.1
20260507231036 62 150 0.0 0.0 0.00 0.04 0.04 56 1009.0
20260507230054 62 150 0.0 3.0 0.00 0.04 0.04 56 1009.0
20260507225019 62 167 0.0 2.0 0.00 0.04 0.04 56 1009.0
20260507224012 62 184 0.0 3.0 0.00 0.04 0.04 56 1008.8
20260507223019 62 140 0.0 2.0 0.00 0.04 0.04 56 1008.9
20260507222014 63 146 1.0 2.0 0.00 0.04 0.04 56 1008.7
20260507221027 63 115 1.0 3.0 0.00 0.04 0.04 55 1008.7
20260507220015 63 153 0.0 2.0 0.00 0.04 0.04 55 1008.7
20260507215027 63 150 0.0 3.0 0.00 0.04 0.04 57 1008.8
20260507214021 63 109 0.0 4.0 0.00 0.04 0.04 54 1008.8
20260507213035 63 111 0.0 2.0 0.00 0.04 0.04 55 1008.9
20260507212020 63 117 0.0 3.0 0.00 0.04 0.04 54 1008.9
20260507211014 63 120 0.0 6.0 0.00 0.04 0.04 54 1009.2
20260507210023 63 117 0.0 4.0 0.00 0.04 0.04 56 1009.1
20260507205017 63 150 0.0 2.0 0.00 0.04 0.04 55 1009.1
20260507204032 63 155 0.0 4.0 0.00 0.04 0.04 53 1009.1
20260507203027 63 123 1.0 4.0 0.00 0.04 0.04 53 1008.9
20260507202021 63 162 0.0 3.0 0.00 0.04 0.04 54 1008.8
20260507201035 64 122 0.0 5.0 0.00 0.04 0.04 56 1008.8
20260507200022 64 96 0.0 1.0 0.00 0.04 0.04 54 1008.8
20260507195036 64 95 0.0 2.0 0.00 0.04 0.04 53 1009.0
20260507194020 64 92 0.0 3.0 0.00 0.04 0.04 56 1009.2
20260507193014 63 123 0.0 1.0 0.00 0.04 0.04 56 1009.4
20260507192027 63 123 0.0 3.0 0.00 0.04 0.04 55 1009.3
20260507191041 62 167 0.0 3.0 0.00 0.04 0.04 52 1009.5
20260507190036 63 133 0.0 2.0 0.00 0.04 0.04 55 1009.7
20260507185020 62 142 0.0 2.0 0.00 0.04 0.04 55 1009.8
20260507184035 62 153 0.0 3.0 0.00 0.04 0.04 54 1010.0
20260507183027 62 137 0.0 0.0 0.00 0.04 0.04 59 1010.1
20260507182021 62 137 0.0 3.0 0.00 0.04 0.04 57 1010.1
20260507181014 61 105 0.0 1.0 0.00 0.04 0.04 58 1010.1
20260507180019 61 105 0.0 0.0 0.00 0.04 0.04 56 1010.6
20260507175012 61 103 0.0 0.0 0.00 0.04 0.04 58 1010.6
20260507174026 60 104 0.0 0.0 0.00 0.04 0.04 56 1010.8
20260507173020 59 103 0.0 1.0 0.00 0.04 0.04 56 1011.0
20260507172034 60 98 0.0 1.0 0.00 0.04 0.04 58 1010.8
20260507171019 58 333 0.0 0.0 0.00 0.04 0.04 64 1011.0
20260507170036 59 331 0.0 0.0 0.00 0.04 0.04 63 1011.4
20260507165021 59 331 0.0 0.0 0.00 0.04 0.04 60 1011.6
20260507164015 59 331 0.0 0.0 0.00 0.04 0.04 58 1011.9
20260507163029 59 331 0.0 0.0 0.00 0.04 0.04 58 1011.6
20260507162043 58 331 0.0 1.0 0.00 0.04 0.04 55 1012.0